鹿林彗星

C/2007 N3 ( Lulin )

English version
Home page
Total 6,336 html files since Dec. 4, 1995
Updated on June 30, 2008

---------------------------------------------------------------------

・ プロフィール

発見日 2007年7月11日
発見光度 18.9等
発見者 Quanzhi Ye (Guangzhou, China), Chi Sheng Lin (Lulin Sky Survey)

・ 写真集

・ 軌道要素

Epoch 2009 Jan. 9.0 TT = JDT 2454840.5
T 2009 Jan. 10.66551 TT                                 MPC
q   1.2125523            (2000.0)            P               Q
z  +0.0000043      Peri.  136.85390     -0.92916054     -0.36953038
 +/-0.0000079      Node   338.53392     -0.34642777     +0.86057082
e   0.9999948      Incl.  178.37278     -0.12902902     +0.35052129

・ 星図

・ 光度変化

        m1 = 6.5 + 5 logΔ + 10.0 log r

---------------------------------------------------------------------

軌道要素はM.P.E.C. 2008-E12に掲載されたものです。
星図はステラナビゲータ Ver.8 (アストロアーツ) で作成したものです。
光度グラフはComet for Windowsで作成したものです。

---------------------------------------------------------------------

Copyright(C) 1995-2008 Seiichi Yoshida (comet@aerith.net). All rights reserved.